[[{"header":{"parameterUnit":"m.s-1","parameterCategory":1,"la1":30.2992,"la2":30.254,"lo1":-89.0895,"lo2":-89.0443,"dy":0.0025,"dx":0.0025,"nx":19,"ny":19,"refTime":"2026-04-08T09:00:00:Z","depth":0,"parameterNumber":2,"parameterNumberName":"U-component_of_WINDS"},"data":[0,0,0,0.4928,0.4928,0.493,0.4931,0.4911,0.491,0,0,0,0,0,0,0,0,0,0,0,0.4916,0.4915,0.4928,0.4928,0.493,0.4931,0.4911,0.491,0,0,0,0,0,0,0,0,0,0,0,0.4916,0.4915,0.4915,0.4928,0.493,0.4931,0.4911,0.4916,0,0,0,0,0,0,0,0,0,0,0.4918,0.4895,0.4915,0.4915,0.4928,0.493,0.4931,0.4917,0.4916,0.49,0,0.4886,0,0.4898,0.4908,0.4908,0,0,0,0.4936,0.4896,0.4908,0.4915,0.4928,0.493,0.4931,0.4917,0.4916,0.4899,0.4886,0.4885,0.4897,0.4907,0.4907,0.4796,0.4795,0,0,0.4935,0.4909,0.4909,0.4907,0.4908,0.4931,0.4931,0.4916,0.4899,0.4886,0.4885,0.4897,0.4907,0.4907,0.4797,0.4796,0,0,0,0.493,0.4908,0.4921,0.4907,0.4909,0.4931,0.4931,0.4899,0.4906,0.4885,0.4897,0.4907,0.4907,0.4798,0.4797,0.4726,0,0,0,0.493,0.4905,0.4921,0.4904,0.4909,0.4905,0.4914,0.4907,0.4906,0.4897,0.4907,0.4906,0.4799,0.4797,0.473,0.4694,0,0,0,0.4919,0.4904,0.4901,0.4903,0.4904,0.4906,0.4912,0.4908,0.4913,0.4908,0.4906,0.48,0.4798,0.4733,0.4701,0.4655,0,0,0,0.4899,0.4837,0.4899,0.4835,0.4903,0.4864,0.4912,0.4884,0.4871,0.4907,0.4799,0.4797,0.4735,0.4704,0.4659,0.4608,0.4586,0,0,0.4806,0.4825,0.4789,0.4845,0.4788,0.4866,0.4798,0.481,0.4833,0.4807,0.4804,0.4728,0.4701,0.4656,0.4481,0.4463,0,0,0,0.475,0.4723,0.4715,0.4703,0.4713,0.4718,0.4744,0.4749,0.4729,0.4815,0.4703,0.4688,0.4662,0.4639,0.4624,0.4601,0.4787,0.4787,0.4787,0.4575,0.4611,0.4553,0.4589,0.4577,0.4607,0.4599,0.461,0.4648,0.4621,0.4611,0.4502,0.4474,0.4463,0.4439,0.4592,0.4592,0.4592,0.4592,0.4438,0.4403,0.446,0.4423,0.446,0.4429,0.4456,0.4484,0.4458,0.4512,0.4491,0.4541,0.4442,0.4423,0.4587,0.4588,0.4588,0.4589,0.4589,0.4322,0.4312,0.4322,0.4309,0.4295,0.4335,0.4308,0.4344,0.4377,0.4357,0.4349,0.435,0.4351,0.4352,0.4352,0.4351,0.4351,0.4351,0.435,0.4196,0.421,0.4184,0.4192,0.419,0.4191,0.4222,0.422,0.4225,0.4253,0.4253,0.429,0.4429,0.4459,0.4344,0.4346,0.4346,0.4347,0.4347,0.4033,0.4076,0.4036,0.4034,0.4046,0.4028,0.4078,0.407,0.4073,0.4058,0.4103,0.4201,0.4221,0.4234,0.4259,0.4099,0.4099,0.4099,0.4099,0.3931,0.3948,0.3915,0.3908,0.3907,0.3948,0.3898,0.3923,0.3954,0.3958,0.3988,0.4027,0.4038,0.4051,0.4067,0.4091,0.3892,0.3892,0.3892,0.383,0.3849,0.38,0.3835,0.3848,0.3858,0.3812,0.38,0.3845,0.3884,0.396,0.3969,0.4032,0.4052,0.4085,0.411,0.4154,0,0]},{"header":{"parameterUnit":"m.s-1","parameterCategory":1,"la1":30.2992,"la2":30.254,"lo1":-89.0895,"lo2":-89.0443,"dy":0.0025,"dx":0.0025,"nx":19,"ny":19,"refTime":"2026-04-08T09:00:00:Z","depth":0,"parameterNumber":3,"parameterNumberName":"V-component_of_WINDS"},"data":[0,0,0,-2.3153,-2.3155,-2.323,-2.3231,-2.3336,-2.3337,0,0,0,0,0,0,0,0,0,0,0,-2.3137,-2.3138,-2.3153,-2.3155,-2.323,-2.3231,-2.3336,-2.3337,0,0,0,0,0,0,0,0,0,0,0,-2.3136,-2.3137,-2.3139,-2.3155,-2.323,-2.3231,-2.3335,-2.3275,0,0,0,0,0,0,0,0,0,0,-2.32,-2.3192,-2.3137,-2.3139,-2.3155,-2.323,-2.3231,-2.3272,-2.3279,-2.3306,0,-2.3332,0,-2.3337,-2.3345,-2.3345,0,0,0,-2.3149,-2.3186,-2.3201,-2.3139,-2.3156,-2.323,-2.3195,-2.3276,-2.3283,-2.3315,-2.3334,-2.3338,-2.3338,-2.3345,-2.3346,-2.3521,-2.3522,0,0,-2.3145,-2.3154,-2.3196,-2.3206,-2.3197,-2.3192,-2.3197,-2.328,-2.3301,-2.3334,-2.334,-2.334,-2.3346,-2.3347,-2.352,-2.3522,0,0,0,-2.3137,-2.3151,-2.3163,-2.3202,-2.3215,-2.3195,-2.32,-2.3297,-2.3301,-2.3341,-2.3341,-2.3347,-2.3348,-2.3519,-2.3521,-2.3581,0,0,0,-2.3134,-2.3146,-2.3162,-2.3168,-2.3214,-2.3258,-2.3216,-2.3295,-2.3304,-2.3341,-2.3347,-2.3349,-2.3518,-2.352,-2.3577,-2.3608,0,0,0,-2.313,-2.3145,-2.3159,-2.3168,-2.3201,-2.3256,-2.3264,-2.3297,-2.3305,-2.3345,-2.335,-2.3517,-2.352,-2.3574,-2.3602,-2.3657,0,0,0,-2.3127,-2.3211,-2.316,-2.3254,-2.32,-2.3294,-2.3263,-2.3332,-2.3374,-2.3347,-2.3518,-2.3521,-2.3572,-2.3598,-2.3653,-2.3704,-2.3726,0,0,-2.3238,-2.3225,-2.328,-2.3236,-2.3341,-2.3281,-2.3395,-2.3424,-2.342,-2.3487,-2.3492,-2.3579,-2.3602,-2.3656,-2.3849,-2.3866,0,0,0,-2.3318,-2.3357,-2.3383,-2.3424,-2.345,-2.3474,-2.3486,-2.3497,-2.3554,-2.3457,-2.3613,-2.3627,-2.3658,-2.3682,-2.3697,-2.3723,-2.3532,-2.3532,-2.3532,-2.3486,-2.3477,-2.3566,-2.3566,-2.3607,-2.3618,-2.3649,-2.3666,-2.3644,-2.3681,-2.3701,-2.3819,-2.3848,-2.3859,-2.3886,-2.3728,-2.3728,-2.3728,-2.3728,-2.3647,-2.3701,-2.3671,-2.3747,-2.3737,-2.38,-2.3814,-2.3797,-2.3854,-2.3804,-2.3831,-2.3777,-2.3879,-2.3902,-2.3733,-2.3732,-2.3732,-2.3731,-2.3731,-2.3755,-2.378,-2.3793,-2.3851,-2.3896,-2.3893,-2.3949,-2.3937,-2.3926,-2.3953,-2.3972,-2.3971,-2.3968,-2.3963,-2.3964,-2.3964,-2.3965,-2.3965,-2.3965,-2.3863,-2.3875,-2.3925,-2.3959,-2.3984,-2.4015,-2.4027,-2.4051,-2.4074,-2.406,-2.4061,-2.4035,-2.3891,-2.3855,-2.3971,-2.397,-2.3969,-2.3969,-2.3968,-2.4028,-2.3989,-2.4065,-2.409,-2.4129,-2.4175,-2.416,-2.4209,-2.4226,-2.4254,-2.4223,-2.4119,-2.4104,-2.4092,-2.4062,-2.4225,-2.4225,-2.4225,-2.4225,-2.4119,-2.4111,-2.4186,-2.4227,-2.4265,-2.4259,-2.4344,-2.4354,-2.4359,-2.4369,-2.4344,-2.4303,-2.4291,-2.4284,-2.4267,-2.4239,-2.4444,-2.4444,-2.4444,-2.422,-2.4215,-2.429,-2.4295,-2.4325,-2.4351,-2.4431,-2.4477,-2.4474,-2.4453,-2.4376,-2.4367,-2.4301,-2.428,-2.4256,-2.4231,-2.4179,0,0]}]]